Tracking 19562 objects as of 23-Mar-2019
HD Live streaming from Space Station
objects crossing your sky now

MOLNIYA 1-29

Track MOLNIYA 1-29 now!
MOLNIYA 1-29 is classified as:


NORAD ID: 7780
Int'l Code: 1975-036A
Perigee: 297.3 km
Apogee: 40,067.2 km
Inclination: 62.3 °
Period: 717.7 minutes
Semi major axis: 26553 km
RCS: 18.4266 m2 (large)
Launch date: April 29, 1975
Source: Commonwealth of Independent States (former USSR) (CIS)
Launch site: PLESETSK MISSILE AND SPACE COMPLEX (PKMTR)
aabbcc
Your satellite tracking list
Your tracking list is empty




NASA's NSSDC Master Catalog

Two Line Element Set (TLE):
1  7780U 75036A   19079.88171976  .00000027  00000-0  66906-4 0  9996
2  7780  62.3397  25.6376 7488711 283.6471   9.8389  2.00644288321883
Source of the keplerian elements: AFSPC